| time (UTC) | temp C | wind direction | speed KPH | gust KPH | rain 1hr cm | rain 24hr cm | rain mn cm | humidity % | barometer mb |
| 20260507092657 | 12 | 111 | 0.0 | 1.6 | 0.00 | 0.00 | 0.00 | 77 | 1015.5 |
| 20260507091903 | 12 | 111 | 0.0 | 1.6 | 0.00 | 0.00 | 0.00 | 77 | 1015.7 |
| 20260507091403 | 12 | 111 | 0.0 | 1.6 | 0.00 | 0.00 | 0.00 | 77 | 1015.8 |
| 20260507090904 | 12 | 111 | 0.0 | 0.0 | 0.00 | 0.00 | 0.00 | 76 | 1015.7 |
| 20260507090402 | 12 | 111 | 0.0 | 0.0 | 0.00 | 0.00 | 0.00 | 76 | 1015.8 |
| 20260507085903 | 12 | 111 | 0.0 | 0.0 | 0.00 | 0.00 | 0.00 | 76 | 1015.8 |
| 20260507085402 | 12 | 111 | 0.0 | 1.6 | 0.00 | 0.00 | 0.00 | 76 | 1015.9 |
| 20260507084903 | 12 | 111 | 0.0 | 1.6 | 0.00 | 0.00 | 0.00 | 76 | 1016.0 |
| 20260507084403 | 12 | 111 | 0.0 | 1.6 | 0.00 | 0.00 | 0.00 | 76 | 1015.9 |
| 20260507083904 | 13 | 111 | 0.0 | 1.6 | 0.00 | 0.00 | 0.00 | 76 | 1016.1 |
| 20260507083654 | 13 | 111 | 0.0 | 1.6 | 0.00 | 0.00 | 0.00 | 76 | 1016.0 |
| 20260507082902 | 13 | 111 | 0.0 | 0.0 | 0.00 | 0.00 | 0.00 | 76 | 1016.1 |
| 20260507082650 | 13 | 111 | 0.0 | 4.8 | 0.00 | 0.00 | 0.00 | 76 | 1016.1 |
| 20260507081904 | 13 | 111 | 0.0 | 4.8 | 0.00 | 0.00 | 0.00 | 76 | 1016.1 |
| 20260507081403 | 13 | 111 | 1.6 | 4.8 | 0.00 | 0.00 | 0.00 | 76 | 1016.2 |
| 20260507080903 | 13 | 111 | 3.2 | 4.8 | 0.00 | 0.00 | 0.00 | 76 | 1016.1 |
| 20260507080659 | 13 | 111 | 3.2 | 4.8 | 0.00 | 0.00 | 0.00 | 75 | 1016.2 |
| 20260507075903 | 13 | 122 | 1.6 | 3.2 | 0.00 | 0.00 | 0.00 | 75 | 1016.2 |
| 20260507075403 | 13 | 141 | 1.6 | 4.8 | 0.00 | 0.00 | 0.00 | 75 | 1016.0 |
| 20260507074904 | 13 | 144 | 1.6 | 4.8 | 0.00 | 0.00 | 0.00 | 75 | 1016.1 |
| 20260507074403 | 13 | 144 | 3.2 | 4.8 | 0.00 | 0.00 | 0.00 | 75 | 1016.1 |
| 20260507074155 | 13 | 146 | 3.2 | 4.8 | 0.00 | 0.00 | 0.00 | 75 | 1016.1 |
| 20260507073404 | 13 | 119 | 3.2 | 4.8 | 0.00 | 0.00 | 0.00 | 74 | 1016.1 |
| 20260507072905 | 13 | 110 | 3.2 | 4.8 | 0.00 | 0.00 | 0.00 | 74 | 1016.0 |
| 20260507072403 | 13 | 121 | 3.2 | 4.8 | 0.00 | 0.00 | 0.00 | 73 | 1016.1 |
| 20260507071903 | 13 | 136 | 1.6 | 3.2 | 0.00 | 0.00 | 0.00 | 73 | 1016.1 |
| 20260507071651 | 13 | 105 | 1.6 | 3.2 | 0.00 | 0.00 | 0.00 | 73 | 1016.1 |
| 20260507070902 | 13 | 105 | 1.6 | 3.2 | 0.00 | 0.00 | 0.00 | 73 | 1016.2 |
| 20260507070404 | 13 | 105 | 1.6 | 3.2 | 0.00 | 0.00 | 0.00 | 73 | 1016.2 |
| 20260507065904 | 13 | 105 | 1.6 | 3.2 | 0.00 | 0.00 | 0.00 | 73 | 1016.2 |
| 20260507065404 | 13 | 105 | 1.6 | 3.2 | 0.00 | 0.00 | 0.00 | 72 | 1016.2 |
| 20260507064903 | 13 | 105 | 0.0 | 3.2 | 0.00 | 0.00 | 0.00 | 71 | 1016.3 |
| 20260507064404 | 13 | 105 | 0.0 | 3.2 | 0.00 | 0.00 | 0.00 | 72 | 1016.2 |
| 20260507063901 | 14 | 105 | 1.6 | 3.2 | 0.00 | 0.00 | 0.00 | 72 | 1016.2 |
| 20260507063402 | 14 | 105 | 1.6 | 3.2 | 0.00 | 0.00 | 0.00 | 71 | 1016.3 |
| 20260507062905 | 14 | 12 | 0.0 | 1.6 | 0.00 | 0.00 | 0.00 | 71 | 1016.3 |
| 20260507062402 | 14 | 11 | 0.0 | 3.2 | 0.00 | 0.00 | 0.00 | 70 | 1016.2 |
| 20260507061902 | 14 | 11 | 0.0 | 3.2 | 0.00 | 0.00 | 0.00 | 70 | 1016.2 |
| 20260507061657 | 14 | 11 | 1.6 | 3.2 | 0.00 | 0.00 | 0.00 | 70 | 1016.3 |
| 20260507061403 | 14 | 11 | 0.0 | 3.2 | 0.00 | 0.00 | 0.00 | 70 | 1016.2 |
| 20260507061358 | 15 | 144 | 0.0 | 1.6 | 0.00 | 0.00 | 0.00 | 69 | 1016.3 |
| 20260507061034 | 14 | 11 | 1.6 | 3.2 | 0.00 | 0.00 | 0.00 | 70 | 1016.3 |
| 20260507060224 | 15 | 13 | 0.0 | 3.2 | 0.00 | 0.00 | 0.00 | 69 | 1016.3 |
| 20260507054903 | 15 | 144 | 0.0 | 4.8 | 0.00 | 0.00 | 0.00 | 69 | 1016.4 |
| 20260507054653 | 15 | 144 | 1.6 | 4.8 | 0.00 | 0.00 | 0.00 | 69 | 1016.4 |
| 20260507053903 | 15 | 144 | 3.2 | 9.7 | 0.00 | 0.00 | 0.00 | 69 | 1016.4 |
| 20260507053404 | 15 | 139 | 3.2 | 9.7 | 0.00 | 0.00 | 0.00 | 69 | 1016.4 |
| 20260507052903 | 15 | 82 | 4.8 | 9.7 | 0.00 | 0.00 | 0.00 | 69 | 1016.4 |
| 20260507052403 | 15 | 95 | 3.2 | 9.7 | 0.00 | 0.00 | 0.00 | 68 | 1016.3 |
| 20260507051904 | 15 | 90 | 3.2 | 9.7 | 0.00 | 0.00 | 0.00 | 68 | 1016.4 |
| 20260507051659 | 15 | 140 | 3.2 | 9.7 | 0.00 | 0.00 | 0.00 | 67 | 1016.3 |
| 20260507050902 | 15 | 119 | 4.8 | 9.7 | 0.00 | 0.00 | 0.00 | 67 | 1016.4 |
| 20260507050403 | 15 | 104 | 4.8 | 9.7 | 0.00 | 0.00 | 0.00 | 67 | 1016.4 |
| 20260507045902 | 15 | 106 | 4.8 | 9.7 | 0.00 | 0.00 | 0.00 | 66 | 1016.3 |
| 20260507045402 | 15 | 103 | 4.8 | 9.7 | 0.00 | 0.00 | 0.00 | 66 | 1016.3 |
| 20260507044902 | 16 | 111 | 4.8 | 9.7 | 0.00 | 0.00 | 0.00 | 65 | 1016.3 |
| 20260507044653 | 16 | 88 | 3.2 | 9.7 | 0.00 | 0.00 | 0.00 | 65 | 1016.3 |
| 20260507043902 | 16 | 93 | 3.2 | 6.4 | 0.00 | 0.00 | 0.00 | 64 | 1016.3 |
| 20260507043402 | 16 | 105 | 3.2 | 6.4 | 0.00 | 0.00 | 0.00 | 64 | 1016.2 |
| 20260507043204 | 16 | 132 | 3.2 | 12.9 | 0.00 | 0.00 | 0.00 | 63 | 1016.2 |
| 20260507042401 | 16 | 126 | 3.2 | 12.9 | 0.00 | 0.00 | 0.00 | 63 | 1016.1 |
| 20260507041901 | 16 | 132 | 4.8 | 12.9 | 0.00 | 0.00 | 0.00 | 63 | 1016.1 |
| 20260507041755 | 17 | 140 | 4.8 | 11.3 | 0.00 | 0.00 | 0.00 | 62 | 1016.0 |
| 20260507041441 | 16 | 129 | 4.8 | 12.9 | 0.00 | 0.00 | 0.00 | 63 | 1016.0 |
| 20260507040403 | 17 | 137 | 4.8 | 11.3 | 0.00 | 0.00 | 0.00 | 62 | 1015.9 |
| 20260507035902 | 17 | 119 | 3.2 | 9.7 | 0.00 | 0.00 | 0.00 | 61 | 1016.0 |
| 20260507035402 | 17 | 127 | 3.2 | 9.7 | 0.00 | 0.00 | 0.00 | 61 | 1015.9 |
| 20260507034903 | 17 | 107 | 3.2 | 9.7 | 0.00 | 0.00 | 0.00 | 61 | 1015.8 |
| 20260507034403 | 17 | 128 | 3.2 | 9.7 | 0.00 | 0.00 | 0.00 | 60 | 1015.8 |
| 20260507033902 | 17 | 129 | 4.8 | 9.7 | 0.00 | 0.00 | 0.00 | 60 | 1015.7 |
| 20260507033402 | 17 | 136 | 6.4 | 14.5 | 0.00 | 0.00 | 0.00 | 59 | 1015.7 |
| 20260507032902 | 17 | 164 | 8.0 | 14.5 | 0.00 | 0.00 | 0.00 | 59 | 1015.6 |
| 20260507032401 | 18 | 159 | 8.0 | 16.1 | 0.00 | 0.00 | 0.00 | 59 | 1015.5 |
| 20260507031903 | 18 | 157 | 8.0 | 16.1 | 0.00 | 0.00 | 0.00 | 58 | 1015.5 |
| 20260507031403 | 18 | 161 | 8.0 | 14.5 | 0.00 | 0.00 | 0.00 | 58 | 1015.4 |
| 20260507030901 | 18 | 137 | 8.0 | 14.5 | 0.00 | 0.00 | 0.00 | 58 | 1015.4 |
| 20260507030456 | 18 | 152 | 6.4 | 14.5 | 0.00 | 0.00 | 0.00 | 57 | 1015.2 |
| 20260507030436 | 18 | 141 | 8.0 | 14.5 | 0.00 | 0.00 | 0.00 | 57 | 1015.2 |
| 20260507025402 | 19 | 146 | 6.4 | 14.5 | 0.00 | 0.00 | 0.00 | 57 | 1015.1 |
| 20260507024901 | 19 | 161 | 8.0 | 16.1 | 0.00 | 0.00 | 0.00 | 56 | 1015.1 |
| 20260507024403 | 19 | 150 | 9.7 | 16.1 | 0.00 | 0.00 | 0.00 | 56 | 1015.0 |
| 20260507023901 | 20 | 166 | 8.0 | 14.5 | 0.00 | 0.00 | 0.00 | 55 | 1014.9 |
| 20260507023659 | 20 | 178 | 6.4 | 14.5 | 0.00 | 0.00 | 0.00 | 55 | 1014.9 |
| 20260507022901 | 20 | 136 | 6.4 | 16.1 | 0.00 | 0.00 | 0.00 | 54 | 1014.9 |
| 20260507022659 | 20 | 142 | 6.4 | 16.1 | 0.00 | 0.00 | 0.00 | 53 | 1014.8 |
| 20260507021901 | 21 | 167 | 6.4 | 16.1 | 0.00 | 0.00 | 0.00 | 53 | 1014.7 |
| 20260507021401 | 21 | 153 | 8.0 | 16.1 | 0.00 | 0.00 | 0.00 | 52 | 1014.5 |
| 20260507021203 | 21 | 162 | 8.0 | 16.1 | 0.00 | 0.00 | 0.00 | 52 | 1014.6 |
| 20260507020402 | 21 | 172 | 8.0 | 16.1 | 0.00 | 0.00 | 0.00 | 51 | 1014.6 |
| 20260507015903 | 21 | 180 | 9.7 | 16.1 | 0.00 | 0.00 | 0.00 | 51 | 1014.5 |
| 20260507015402 | 22 | 156 | 6.4 | 16.1 | 0.00 | 0.00 | 0.00 | 51 | 1014.3 |
| 20260507014904 | 22 | 207 | 4.8 | 16.1 | 0.00 | 0.00 | 0.00 | 51 | 1014.3 |
| 20260507014404 | 22 | 87 | 8.0 | 20.9 | 0.00 | 0.00 | 0.00 | 51 | 1014.3 |
| 20260507013904 | 22 | 196 | 9.7 | 20.9 | 0.00 | 0.00 | 0.00 | 51 | 1014.3 |
| 20260507013455 | 22 | 144 | 9.7 | 24.1 | 0.00 | 0.00 | 0.00 | 50 | 1014.1 |
| 20260507013440 | 22 | 173 | 9.7 | 19.3 | 0.00 | 0.00 | 0.00 | 50 | 1014.2 |
| 20260507012701 | 22 | 131 | 8.0 | 24.1 | 0.00 | 0.00 | 0.00 | 49 | 1014.1 |
| 20260507012201 | 23 | 173 | 11.3 | 24.1 | 0.00 | 0.00 | 0.00 | 49 | 1014.1 |
| 20260507011403 | 23 | 190 | 16.1 | 29.0 | 0.00 | 0.00 | 0.00 | 48 | 1014.0 |
| 20260507010902 | 23 | 161 | 16.1 | 30.6 | 0.00 | 0.00 | 0.00 | 48 | 1013.9 |
| 20260507010703 | 24 | 165 | 11.3 | 30.6 | 0.00 | 0.00 | 0.00 | 46 | 1013.9 |
| 20260507005902 | 24 | 165 | 6.4 | 20.9 | 0.00 | 0.00 | 0.00 | 46 | 1013.8 |
| 20260507005402 | 25 | 169 | 6.4 | 20.9 | 0.00 | 0.00 | 0.00 | 45 | 1013.9 |
| 20260507004903 | 25 | 242 | 8.0 | 24.1 | 0.00 | 0.00 | 0.00 | 45 | 1013.9 |
| 20260507004402 | 25 | 217 | 6.4 | 24.1 | 0.00 | 0.00 | 0.00 | 44 | 1013.8 |
| 20260507003904 | 25 | 5 | 4.8 | 14.5 | 0.00 | 0.00 | 0.00 | 44 | 1013.8 |
| 20260507003408 | 25 | 230 | 3.2 | 14.5 | 0.00 | 0.00 | 0.00 | 43 | 1013.8 |
| 20260507002903 | 25 | 135 | 3.2 | 19.3 | 0.00 | 0.00 | 0.00 | 40 | 1013.8 |
| 20260507002654 | 25 | 9 | 6.4 | 19.3 | 0.00 | 0.00 | 0.00 | 36 | 1013.7 |
| 20260507001902 | 25 | 130 | 9.7 | 19.3 | 0.00 | 0.00 | 0.00 | 37 | 1013.6 |
| 20260507001701 | 25 | 5 | 8.0 | 20.9 | 0.00 | 0.00 | 0.00 | 36 | 1013.6 |
| 20260507000903 | 25 | 355 | 8.0 | 20.9 | 0.00 | 0.00 | 0.00 | 36 | 1013.5 |
| 20260507000405 | 25 | 5 | 11.3 | 20.9 | 0.00 | 0.00 | 0.00 | 36 | 1013.5 |
| 20260506235903 | 25 | 336 | 11.3 | 22.5 | 0.00 | 0.00 | 0.00 | 36 | 1013.5 |
| 20260506235405 | 25 | 320 | 9.7 | 22.5 | 0.00 | 0.00 | 0.00 | 35 | 1013.3 |
| 20260506235159 | 25 | 328 | 9.7 | 22.5 | 0.00 | 0.00 | 0.00 | 36 | 1013.3 |
| 20260506234402 | 25 | 5 | 11.3 | 22.5 | 0.00 | 0.00 | 0.00 | 35 | 1013.3 |
| 20260506233903 | 26 | 325 | 9.7 | 20.9 | 0.00 | 0.00 | 0.00 | 33 | 1013.3 |
| 20260506233402 | 26 | 306 | 6.4 | 20.9 | 0.00 | 0.00 | 0.00 | 33 | 1013.3 |
| 20260506232902 | 26 | 98 | 4.8 | 14.5 | 0.00 | 0.00 | 0.00 | 33 | 1013.3 |
| 20260506232403 | 26 | 296 | 4.8 | 14.5 | 0.00 | 0.00 | 0.00 | 33 | 1013.2 |
| 20260506231904 | 26 | 9 | 6.4 | 14.5 | 0.00 | 0.00 | 0.00 | 33 | 1013.2 |
| 20260506231403 | 27 | 229 | 4.8 | 12.9 | 0.00 | 0.00 | 0.00 | 33 | 1013.2 |
| 20260506230902 | 27 | 192 | 3.2 | 9.7 | 0.00 | 0.00 | 0.00 | 32 | 1013.3 |
| 20260506230403 | 27 | 161 | 4.8 | 11.3 | 0.00 | 0.00 | 0.00 | 32 | 1013.4 |
| 20260506225903 | 27 | 227 | 6.4 | 16.1 | 0.00 | 0.00 | 0.00 | 33 | 1013.5 |
| 20260506225751 | 26 | 291 | 6.4 | 16.1 | 0.00 | 0.00 | 0.00 | 33 | 1013.6 |
| 20260506225438 | 27 | 252 | 4.8 | 16.1 | 0.00 | 0.00 | 0.00 | 33 | 1013.5 |
| 20260506224454 | 26 | 295 | 8.0 | 14.5 | 0.00 | 0.00 | 0.00 | 33 | 1013.6 |
| 20260506224439 | 26 | 306 | 9.7 | 16.1 | 0.00 | 0.00 | 0.00 | 33 | 1013.6 |
| 20260506223402 | 26 | 294 | 6.4 | 14.5 | 0.00 | 0.00 | 0.00 | 32 | 1013.7 |
| 20260506222904 | 26 | 296 | 4.8 | 14.5 | 0.00 | 0.00 | 0.00 | 33 | 1013.7 |
| 20260506222402 | 26 | 314 | 4.8 | 14.5 | 0.00 | 0.00 | 0.00 | 33 | 1013.8 |
| 20260506221902 | 26 | 279 | 4.8 | 14.5 | 0.00 | 0.00 | 0.00 | 34 | 1013.8 |
| 20260506221403 | 26 | 328 | 4.8 | 14.5 | 0.00 | 0.00 | 0.00 | 34 | 1013.8 |
| 20260506220902 | 26 | 201 | 6.4 | 14.5 | 0.00 | 0.00 | 0.00 | 33 | 1013.9 |
| 20260506220656 | 26 | 284 | 4.8 | 14.5 | 0.00 | 0.00 | 0.00 | 34 | 1014.0 |
| 20260506215904 | 26 | 250 | 3.2 | 12.9 | 0.00 | 0.00 | 0.00 | 34 | 1014.1 |
| 20260506215403 | 25 | 234 | 4.8 | 12.9 | 0.00 | 0.00 | 0.00 | 35 | 1014.2 |
| 20260506214904 | 25 | 218 | 4.8 | 12.9 | 0.00 | 0.00 | 0.00 | 34 | 1014.2 |
| 20260506214403 | 25 | 223 | 4.8 | 12.9 | 0.00 | 0.00 | 0.00 | 34 | 1014.2 |
| 20260506213902 | 25 | 178 | 6.4 | 12.9 | 0.00 | 0.00 | 0.00 | 34 | 1014.3 |
| 20260506213405 | 25 | 205 | 4.8 | 11.3 | 0.00 | 0.00 | 0.00 | 34 | 1014.4 |
| 20260506212903 | 25 | 127 | 3.2 | 9.7 | 0.00 | 0.00 | 0.00 | 35 | 1014.5 |
| 20260506212403 | 25 | 62 | 4.8 | 11.3 | 0.00 | 0.00 | 0.00 | 36 | 1014.6 |
| 20260506212254 | 24 | 45 | 4.8 | 16.1 | 0.00 | 0.00 | 0.00 | 36 | 1014.7 |
| 20260506212250 | 25 | 87 | 4.8 | 16.1 | 0.00 | 0.00 | 0.00 | 37 | 1014.6 |
| 20260506210902 | 24 | 5 | 4.8 | 16.1 | 0.00 | 0.00 | 0.00 | 37 | 1014.7 |
| 20260506210755 | 23 | 90 | 6.4 | 16.1 | 0.00 | 0.00 | 0.00 | 38 | 1014.8 |
| 20260506210439 | 24 | 18 | 4.8 | 16.1 | 0.00 | 0.00 | 0.00 | 37 | 1014.7 |
| 20260506205402 | 23 | 331 | 8.0 | 16.1 | 0.00 | 0.00 | 0.00 | 40 | 1014.8 |
| 20260506204903 | 23 | 9 | 6.4 | 24.1 | 0.00 | 0.00 | 0.00 | 39 | 1014.8 |
| 20260506204403 | 23 | 5 | 6.4 | 24.1 | 0.00 | 0.00 | 0.00 | 38 | 1015.0 |
| 20260506203903 | 23 | 51 | 8.0 | 24.1 | 0.00 | 0.00 | 0.00 | 38 | 1015.0 |
| 20260506203402 | 23 | 335 | 9.7 | 24.1 | 0.00 | 0.00 | 0.00 | 39 | 1015.1 |
| 20260506202904 | 23 | 36 | 6.4 | 16.1 | 0.00 | 0.00 | 0.00 | 39 | 1015.0 |
| 20260506202659 | 23 | 344 | 6.4 | 14.5 | 0.00 | 0.00 | 0.00 | 40 | 1015.1 |
| 20260506201904 | 23 | 5 | 6.4 | 16.1 | 0.00 | 0.00 | 0.00 | 39 | 1015.2 |
| 20260506201403 | 23 | 90 | 6.4 | 16.1 | 0.00 | 0.00 | 0.00 | 39 | 1015.4 |
| 20260506200903 | 23 | 42 | 6.4 | 16.1 | 0.00 | 0.00 | 0.00 | 40 | 1015.4 |
| 20260506200402 | 22 | 62 | 6.4 | 16.1 | 0.00 | 0.00 | 0.00 | 40 | 1015.5 |
| 20260506195902 | 23 | 341 | 4.8 | 12.9 | 0.00 | 0.00 | 0.00 | 40 | 1015.6 |
| 20260506195402 | 23 | 319 | 4.8 | 12.9 | 0.00 | 0.00 | 0.00 | 40 | 1015.7 |
| 20260506194904 | 23 | 126 | 3.2 | 11.3 | 0.00 | 0.00 | 0.00 | 40 | 1015.8 |
| 20260506194402 | 22 | 256 | 3.2 | 11.3 | 0.00 | 0.00 | 0.00 | 40 | 1015.9 |
| 20260506193903 | 22 | 271 | 3.2 | 11.3 | 0.00 | 0.00 | 0.00 | 43 | 1016.0 |
| 20260506193402 | 22 | 232 | 3.2 | 11.3 | 0.00 | 0.00 | 0.00 | 41 | 1016.1 |
| 20260506192904 | 22 | 175 | 4.8 | 11.3 | 0.00 | 0.00 | 0.00 | 40 | 1016.1 |
| 20260506192404 | 22 | 335 | 4.8 | 11.3 | 0.00 | 0.00 | 0.00 | 41 | 1016.2 |
| 20260506192201 | 22 | 212 | 4.8 | 12.9 | 0.00 | 0.00 | 0.00 | 42 | 1016.2 |
| 20260506191401 | 22 | 279 | 3.2 | 12.9 | 0.00 | 0.00 | 0.00 | 43 | 1016.3 |
| 20260506190902 | 21 | 262 | 3.2 | 9.7 | 0.00 | 0.00 | 0.00 | 45 | 1016.3 |
| 20260506190655 | 20 | 308 | 4.8 | 9.7 | 0.00 | 0.00 | 0.00 | 45 | 1016.4 |
| 20260506190200 | 20 | 304 | 4.8 | 12.9 | 0.00 | 0.00 | 0.00 | 44 | 1016.4 |
| 20260506185402 | 20 | 314 | 4.8 | 12.9 | 0.00 | 0.00 | 0.00 | 46 | 1016.5 |
| 20260506184904 | 19 | 59 | 6.4 | 12.9 | 0.00 | 0.00 | 0.00 | 46 | 1016.5 |
| 20260506184403 | 20 | 288 | 4.8 | 12.9 | 0.00 | 0.00 | 0.00 | 47 | 1016.6 |
| 20260506183904 | 20 | 22 | 4.8 | 12.9 | 0.00 | 0.00 | 0.00 | 47 | 1016.7 |
| 20260506183404 | 20 | 308 | 4.8 | 12.9 | 0.00 | 0.00 | 0.00 | 47 | 1016.7 |
| 20260506182904 | 20 | 15 | 4.8 | 12.9 | 0.00 | 0.00 | 0.00 | 48 | 1016.9 |
| 20260506182403 | 19 | 14 | 4.8 | 12.9 | 0.00 | 0.00 | 0.00 | 50 | 1016.9 |
| 20260506182005 | 19 | 330 | 4.8 | 17.7 | 0.00 | 0.00 | 0.00 | 49 | 1017.0 |
| 20260506181944 | 19 | 9 | 4.8 | 12.9 | 0.00 | 0.00 | 0.00 | 50 | 1016.9 |
| 20260506180905 | 18 | 30 | 4.8 | 17.7 | 0.00 | 0.00 | 0.00 | 52 | 1017.0 |
| 20260506180404 | 18 | 290 | 6.4 | 17.7 | 0.00 | 0.00 | 0.00 | 54 | 1017.0 |
| 20260506175903 | 17 | 319 | 8.0 | 17.7 | 0.00 | 0.00 | 0.00 | 53 | 1017.0 |
| 20260506175402 | 17 | 336 | 8.0 | 16.1 | 0.00 | 0.00 | 0.00 | 53 | 1017.0 |
| 20260506174901 | 17 | 313 | 8.0 | 16.1 | 0.00 | 0.00 | 0.00 | 54 | 1017.0 |
| 20260506174402 | 18 | 355 | 6.4 | 12.9 | 0.00 | 0.00 | 0.00 | 52 | 1017.0 |
| 20260506174157 | 18 | 307 | 6.4 | 12.9 | 0.00 | 0.00 | 0.00 | 54 | 1017.0 |
| 20260506173402 | 18 | 0 | 6.4 | 12.9 | 0.00 | 0.00 | 0.00 | 54 | 1017.0 |
| 20260506172902 | 18 | 322 | 4.8 | 12.9 | 0.00 | 0.00 | 0.00 | 53 | 1017.1 |
| 20260506172402 | 18 | 317 | 3.2 | 12.9 | 0.00 | 0.00 | 0.00 | 54 | 1017.1 |
| 20260506171902 | 18 | 338 | 1.6 | 12.9 | 0.00 | 0.00 | 0.00 | 55 | 1017.2 |
| 20260506171403 | 17 | 137 | 1.6 | 9.7 | 0.00 | 0.00 | 0.00 | 55 | 1017.1 |
| 20260506171158 | 17 | 266 | 3.2 | 11.3 | 0.00 | 0.00 | 0.00 | 56 | 1017.2 |
| 20260506170658 | 17 | 295 | 3.2 | 11.3 | 0.00 | 0.00 | 0.00 | 57 | 1017.2 |
| 20260506165902 | 17 | 292 | 3.2 | 11.3 | 0.00 | 0.00 | 0.00 | 59 | 1017.1 |
| 20260506165656 | 16 | 273 | 4.8 | 11.3 | 0.00 | 0.00 | 0.00 | 60 | 1017.2 |
| 20260506164903 | 16 | 290 | 4.8 | 9.7 | 0.00 | 0.00 | 0.00 | 61 | 1017.1 |
| 20260506164504 | 15 | 5 | 4.8 | 8.0 | 0.00 | 0.00 | 0.00 | 62 | 1017.2 |
| 20260506164444 | 15 | 330 | 4.8 | 9.7 | 0.00 | 0.00 | 0.00 | 62 | 1017.2 |
| 20260506163657 | 15 | 313 | 4.8 | 8.0 | 0.00 | 0.00 | 0.00 | 62 | 1017.2 |
| 20260506163157 | 15 | 292 | 6.4 | 8.0 | 0.00 | 0.00 | 0.00 | 63 | 1017.1 |
| 20260506162401 | 15 | 351 | 4.8 | 9.7 | 0.00 | 0.00 | 0.00 | 62 | 1017.2 |
| 20260506161902 | 15 | 296 | 3.2 | 9.7 | 0.00 | 0.00 | 0.00 | 64 | 1017.1 |
| 20260506161401 | 15 | 332 | 4.8 | 9.7 | 0.00 | 0.00 | 0.00 | 67 | 1017.2 |
| 20260506160902 | 15 | 344 | 3.2 | 9.7 | 0.00 | 0.00 | 0.00 | 66 | 1017.2 |
| 20260506160700 | 15 | 0 | 1.6 | 6.4 | 0.00 | 0.00 | 0.00 | 71 | 1017.2 |
| 20260506155902 | 15 | 72 | 1.6 | 6.4 | 0.00 | 0.00 | 0.00 | 74 | 1017.1 |
| 20260506155401 | 13 | 311 | 1.6 | 6.4 | 0.00 | 0.00 | 0.00 | 78 | 1017.1 |
| 20260506154902 | 13 | 317 | 1.6 | 6.4 | 0.00 | 0.00 | 0.00 | 79 | 1017.1 |
| 20260506154403 | 13 | 5 | 1.6 | 4.8 | 0.00 | 0.00 | 0.00 | 81 | 1017.1 |
| 20260506153902 | 12 | 110 | 1.6 | 4.8 | 0.00 | 0.00 | 0.00 | 84 | 1017.1 |
| 20260506153403 | 12 | 61 | 1.6 | 4.8 | 0.00 | 0.00 | 0.00 | 86 | 1017.1 |
| 20260506152903 | 12 | 5 | 1.6 | 4.8 | 0.00 | 0.00 | 0.00 | 87 | 1017.0 |
| 20260506152402 | 12 | 322 | 1.6 | 4.8 | 0.00 | 0.00 | 0.00 | 88 | 1017.1 |
| 20260506152157 | 11 | 325 | 1.6 | 4.8 | 0.00 | 0.00 | 0.00 | 89 | 1017.1 |
| 20260506151402 | 11 | 319 | 1.6 | 6.4 | 0.00 | 0.00 | 0.00 | 90 | 1017.1 |
| 20260506150904 | 11 | 321 | 1.6 | 6.4 | 0.00 | 0.00 | 0.00 | 90 | 1017.2 |
| 20260506150403 | 11 | 336 | 1.6 | 4.8 | 0.00 | 0.00 | 0.00 | 91 | 1017.2 |
| 20260506145902 | 10 | 338 | 1.6 | 4.8 | 0.00 | 0.00 | 0.00 | 91 | 1017.2 |
| 20260506145403 | 10 | 309 | 1.6 | 4.8 | 0.00 | 0.00 | 0.00 | 91 | 1017.2 |
| 20260506144902 | 10 | 339 | 1.6 | 4.8 | 0.00 | 0.00 | 0.00 | 91 | 1017.1 |
| 20260506144655 | 10 | 336 | 1.6 | 3.2 | 0.00 | 0.00 | 0.00 | 91 | 1017.1 |
| 20260506143903 | 9 | 330 | 1.6 | 3.2 | 0.00 | 0.00 | 0.00 | 91 | 1017.2 |
| 20260506143403 | 9 | 290 | 1.6 | 3.2 | 0.00 | 0.00 | 0.00 | 91 | 1017.1 |
| 20260506142902 | 8 | 290 | 1.6 | 3.2 | 0.00 | 0.00 | 0.00 | 91 | 1017.1 |
| 20260506142403 | 8 | 266 | 0.0 | 3.2 | 0.00 | 0.00 | 0.00 | 91 | 1017.0 |
| 20260506141902 | 8 | 163 | 0.0 | 3.2 | 0.00 | 0.00 | 0.00 | 91 | 1016.9 |
| 20260506141402 | 8 | 163 | 0.0 | 3.2 | 0.00 | 0.00 | 0.00 | 90 | 1016.9 |
| 20260506140902 | 7 | 163 | 0.0 | 3.2 | 0.00 | 0.00 | 0.00 | 91 | 1017.0 |
| 20260506140402 | 7 | 150 | 0.0 | 1.6 | 0.00 | 0.00 | 0.00 | 91 | 1017.0 |
| 20260506135902 | 7 | 127 | 0.0 | 0.0 | 0.00 | 0.00 | 0.00 | 90 | 1016.9 |
| 20260506135402 | 7 | 127 | 0.0 | 3.2 | 0.00 | 0.00 | 0.00 | 90 | 1016.9 |
| 20260506134903 | 6 | 127 | 0.0 | 3.2 | 0.00 | 0.00 | 0.00 | 89 | 1016.9 |
| 20260506134402 | 6 | 127 | 0.0 | 3.2 | 0.00 | 0.00 | 0.00 | 89 | 1016.8 |
| 20260506133905 | 6 | 127 | 1.6 | 3.2 | 0.00 | 0.00 | 0.00 | 89 | 1016.8 |
| 20260506133652 | 7 | 127 | 1.6 | 3.2 | 0.00 | 0.00 | 0.00 | 89 | 1016.7 |
| 20260506132901 | 7 | 127 | 0.0 | 3.2 | 0.00 | 0.00 | 0.00 | 89 | 1016.7 |
| 20260506132652 | 7 | 127 | 0.0 | 1.6 | 0.00 | 0.00 | 0.00 | 89 | 1016.6 |
| 20260506132202 | 7 | 127 | 0.0 | 3.2 | 0.00 | 0.03 | 0.00 | 89 | 1016.6 |
| 20260506131403 | 7 | 127 | 1.6 | 3.2 | 0.00 | 0.03 | 0.00 | 89 | 1016.7 |
| 20260506130903 | 7 | 127 | 1.6 | 3.2 | 0.00 | 0.03 | 0.00 | 89 | 1016.6 |
| 20260506130402 | 7 | 127 | 1.6 | 3.2 | 0.00 | 0.03 | 0.00 | 89 | 1016.5 |
| 20260506125903 | 7 | 127 | 1.6 | 3.2 | 0.00 | 0.03 | 0.00 | 89 | 1016.5 |
| 20260506125402 | 7 | 127 | 1.6 | 3.2 | 0.00 | 0.03 | 0.00 | 89 | 1016.6 |
| 20260506124903 | 7 | 127 | 1.6 | 3.2 | 0.00 | 0.03 | 0.00 | 89 | 1016.5 |
| 20260506124403 | 7 | 127 | 1.6 | 3.2 | 0.00 | 0.03 | 0.00 | 89 | 1016.6 |
| 20260506124150 | 7 | 127 | 1.6 | 3.2 | 0.00 | 0.03 | 0.00 | 89 | 1016.5 |
| 20260506123403 | 7 | 127 | 3.2 | 3.2 | 0.00 | 0.03 | 0.00 | 89 | 1016.4 |
| 20260506122903 | 7 | 127 | 1.6 | 3.2 | 0.00 | 0.03 | 0.00 | 88 | 1016.4 |
| 20260506122403 | 7 | 127 | 1.6 | 3.2 | 0.00 | 0.03 | 0.00 | 88 | 1016.2 |
| 20260506121902 | 7 | 127 | 1.6 | 3.2 | 0.00 | 0.05 | 0.00 | 88 | 1016.3 |
| 20260506121402 | 7 | 127 | 1.6 | 3.2 | 0.00 | 0.05 | 0.00 | 88 | 1016.2 |
| 20260506120904 | 7 | 127 | 1.6 | 3.2 | 0.00 | 0.05 | 0.00 | 88 | 1016.3 |
| 20260506120403 | 7 | 127 | 1.6 | 3.2 | 0.00 | 0.05 | 0.00 | 88 | 1016.2 |
| 20260506115903 | 7 | 127 | 0.0 | 3.2 | 0.00 | 0.05 | 0.00 | 88 | 1016.2 |
| 20260506115654 | 7 | 127 | 0.0 | 3.2 | 0.00 | 0.05 | 0.00 | 88 | 1016.3 |
| 20260506114902 | 7 | 127 | 0.0 | 3.2 | 0.00 | 0.05 | 0.00 | 88 | 1016.3 |
| 20260506114403 | 7 | 127 | 0.0 | 1.6 | 0.00 | 0.05 | 0.00 | 88 | 1016.3 |
| 20260506113902 | 7 | 127 | 0.0 | 1.6 | 0.00 | 0.05 | 0.00 | 88 | 1016.3 |
| 20260506113404 | 7 | 127 | 0.0 | 3.2 | 0.00 | 0.05 | 0.00 | 88 | 1016.4 |
| 20260506113150 | 7 | 127 | 0.0 | 3.2 | 0.00 | 0.05 | 0.00 | 88 | 1016.3 |
| 20260506112404 | 7 | 127 | 1.6 | 3.2 | 0.00 | 0.05 | 0.00 | 88 | 1016.3 |
| 20260506111903 | 7 | 127 | 1.6 | 3.2 | 0.00 | 0.05 | 0.00 | 88 | 1016.3 |
| 20260506111452 | 7 | 127 | 1.6 | 3.2 | 0.00 | 0.05 | 0.00 | 87 | 1016.2 |
| 20260506111435 | 7 | 127 | 1.6 | 3.2 | 0.00 | 0.05 | 0.00 | 88 | 1016.3 |
| 20260506110403 | 7 | 127 | 1.6 | 3.2 | 0.00 | 0.05 | 0.00 | 87 | 1016.2 |
| 20260506110152 | 7 | 127 | 1.6 | 3.2 | 0.00 | 0.05 | 0.00 | 87 | 1016.1 |
| 20260506105405 | 7 | 127 | 1.6 | 3.2 | 0.00 | 0.05 | 0.00 | 87 | 1016.2 |
| 20260506104904 | 8 | 127 | 1.6 | 3.2 | 0.00 | 0.05 | 0.00 | 87 | 1016.3 |
| 20260506104443 | 8 | 127 | 1.6 | 3.2 | 0.00 | 0.05 | 0.00 | 87 | 1016.2 |
| 20260506104431 | 8 | 127 | 1.6 | 3.2 | 0.00 | 0.05 | 0.00 | 87 | 1016.3 |
| 20260506103402 | 8 | 127 | 1.6 | 3.2 | 0.00 | 0.08 | 0.00 | 87 | 1016.2 |
| 20260506102903 | 8 | 127 | 1.6 | 3.2 | 0.00 | 0.08 | 0.00 | 87 | 1016.2 |
| 20260506102653 | 8 | 127 | 1.6 | 3.2 | 0.00 | 0.08 | 0.00 | 87 | 1016.2 |
| 20260506101902 | 8 | 138 | 1.6 | 4.8 | 0.00 | 0.08 | 0.00 | 86 | 1016.1 |
| 20260506101403 | 8 | 137 | 1.6 | 4.8 | 0.00 | 0.08 | 0.00 | 86 | 1016.1 |
| 20260506101154 | 8 | 136 | 1.6 | 4.8 | 0.00 | 0.08 | 0.00 | 86 | 1016.0 |
| 20260506100405 | 8 | 138 | 3.2 | 4.8 | 0.00 | 0.08 | 0.00 | 86 | 1016.1 |
| 20260506095902 | 8 | 132 | 3.2 | 4.8 | 0.00 | 0.08 | 0.00 | 86 | 1016.1 |
| 20260506095653 | 8 | 132 | 1.6 | 4.8 | 0.00 | 0.08 | 0.00 | 86 | 1016.1 |
| 20260506095152 | 8 | 132 | 1.6 | 4.8 | 0.00 | 0.08 | 0.00 | 86 | 1016.1 |
| 20260506094402 | 8 | 132 | 1.6 | 4.8 | 0.00 | 0.08 | 0.00 | 86 | 1016.2 |
| 20260506093904 | 8 | 132 | 1.6 | 4.8 | 0.00 | 0.08 | 0.00 | 86 | 1016.1 |
| 20260506093404 | 9 | 111 | 1.6 | 4.8 | 0.00 | 0.08 | 0.00 | 86 | 1016.1 |
| 20260506092903 | 9 | 128 | 3.2 | 4.8 | 0.00 | 0.08 | 0.00 | 86 | 1016.1 |